Time,TemperatureF,DewpointF,PressureIn,WindDirection,WindDirectionDegrees,WindSpeedMPH,WindSpeedGustMPH,Humidity,HourlyPrecipIn,Conditions,Clouds,dailyrainin,SoftwareType,DateUTC
2013-02-21 00:01:00,17.0,17.0,-100.00,ENE,64,6.0,8.0,99,0.00,,,-99.99,,2013-02-21 07:01:00,
2013-02-21 00:11:00,17.0,17.0,-100.00,ENE,61,4.0,6.0,99,0.00,,,-99.99,,2013-02-21 07:11:00,
2013-02-21 00:21:00,17.0,17.0,-100.00,East,83,4.0,6.0,99,0.00,,,-99.99,,2013-02-21 07:21:00,
2013-02-21 00:32:00,17.0,17.0,-100.00,East,100,3.0,6.0,99,0.00,,,-99.99,,2013-02-21 07:32:00,
2013-02-21 00:42:00,17.0,17.0,-100.00,East,99,3.0,6.0,99,0.00,,,-99.99,,2013-02-21 07:42:00,
2013-02-21 00:52:00,17.0,17.0,-100.00,East,90,4.0,7.0,99,0.00,,,-99.99,,2013-02-21 07:52:00,
2013-02-21 01:01:00,17.0,17.0,-100.00,ESE,109,3.0,7.0,99,0.00,,,-99.99,,2013-02-21 08:01:00,
2013-02-21 01:11:00,17.0,17.0,-100.00,East,90,3.0,6.0,98,0.00,,,-99.99,,2013-02-21 08:11:00,
2013-02-21 01:21:00,17.0,17.0,-100.00,ESE,104,5.0,9.0,98,0.01,,,-99.99,,2013-02-21 08:21:00,
2013-02-21 01:32:00,17.0,17.0,-100.00,ESE,104,5.0,9.0,98,0.01,,,-99.99,,2013-02-21 08:32:00,
2013-02-21 01:41:00,17.0,17.0,-100.00,East,97,3.0,7.0,99,0.00,,,-99.99,,2013-02-21 08:41:00,
2013-02-21 01:52:00,17.0,17.0,-100.00,East,89,4.0,7.0,99,0.00,,,-99.99,,2013-02-21 08:52:00,
2013-02-21 02:01:00,17.0,17.0,-100.00,ENE,68,6.0,9.0,99,0.00,,,-99.99,,2013-02-21 09:01:00,
2013-02-21 02:11:00,17.0,17.0,-100.00,ENE,66,4.0,7.0,99,0.00,,,-99.99,,2013-02-21 09:11:00,
2013-02-21 02:22:00,17.0,17.0,-100.00,ENE,64,4.0,6.0,99,0.00,,,-99.99,,2013-02-21 09:22:00,
2013-02-21 02:31:00,17.0,17.0,-100.00,NE,48,4.0,5.0,99,0.00,,,-99.99,,2013-02-21 09:31:00,
2013-02-21 02:41:00,17.0,17.0,-100.00,NE,45,4.0,7.0,98,0.00,,,-99.99,,2013-02-21 09:41:00,
2013-02-21 02:51:00,17.0,16.0,-100.00,NNE,28,5.0,8.0,98,0.00,,,-99.99,,2013-02-21 09:51:00,
2013-02-21 03:01:00,17.0,16.0,-100.00,North,8,5.0,6.0,98,0.00,,,-99.99,,2013-02-21 10:01:00,
2013-02-21 03:11:00,16.0,16.0,-100.00,North,7,6.0,8.0,98,0.00,,,-99.99,,2013-02-21 10:11:00,
2013-02-21 03:21:00,16.0,16.0,-100.00,NNE,16,6.0,9.0,98,0.00,,,-99.99,,2013-02-21 10:21:00,
2013-02-21 03:31:00,16.0,16.0,-100.00,North,8,6.0,7.0,98,0.00,,,-99.99,,2013-02-21 10:31:00,
2013-02-21 03:41:00,16.0,16.0,-100.00,North,6,5.0,7.0,98,0.00,,,-99.99,,2013-02-21 10:41:00,
2013-02-21 03:51:00,16.0,15.0,-100.00,NNE,14,6.0,7.0,98,0.00,,,-99.99,,2013-02-21 10:51:00,
2013-02-21 04:01:00,16.0,15.0,-100.00,North,3,6.0,7.0,98,0.00,,,-99.99,,2013-02-21 11:01:00,
2013-02-21 04:11:00,16.0,15.0,-100.00,North,10,6.0,7.0,98,0.00,,,-99.99,,2013-02-21 11:11:00,
2013-02-21 04:21:00,16.0,15.0,-100.00,North,356,6.0,7.0,98,0.00,,,-99.99,,2013-02-21 11:21:00,
2013-02-21 04:31:00,15.0,15.0,-100.00,North,1,6.0,9.0,98,0.00,,,-99.99,,2013-02-21 11:31:00,
2013-02-21 04:41:00,15.0,15.0,-100.00,North,4,6.0,7.0,98,0.00,,,-99.99,,2013-02-21 11:41:00,
2013-02-21 04:51:00,15.0,14.0,-100.00,North,3,7.0,8.0,97,0.00,,,-99.99,,2013-02-21 11:51:00,
2013-02-21 05:01:00,15.0,14.0,-100.00,North,356,6.0,7.0,97,0.00,,,-99.99,,2013-02-21 12:01:00,
2013-02-21 05:11:00,14.0,14.0,-100.00,North,353,6.0,7.0,97,0.00,,,-99.99,,2013-02-21 12:11:00,
2013-02-21 05:21:00,14.0,14.0,-100.00,NNW,342,6.0,7.0,97,0.00,,,-99.99,,2013-02-21 12:21:00,
2013-02-21 05:32:00,14.0,13.0,-100.00,NNW,340,6.0,7.0,97,0.00,,,-99.99,,2013-02-21 12:32:00,
2013-02-21 05:42:00,14.0,13.0,-100.00,NNW,330,6.0,7.0,97,0.00,,,-99.99,,2013-02-21 12:42:00,
2013-02-21 05:52:00,14.0,13.0,-100.00,NNW,335,5.0,6.0,97,0.00,,,-99.99,,2013-02-21 12:52:00,
2013-02-21 06:01:00,14.0,13.0,-100.00,NNW,339,4.0,6.0,97,0.00,,,-99.99,,2013-02-21 13:01:00,
2013-02-21 06:12:00,14.0,13.0,-100.00,NNW,335,5.0,7.0,97,0.00,,,-99.99,,2013-02-21 13:12:00,
2013-02-21 06:22:00,14.0,13.0,-100.00,NNW,340,5.0,6.0,97,0.00,,,-99.99,,2013-02-21 13:22:00,
2013-02-21 06:32:00,14.0,13.0,-100.00,NNW,339,4.0,6.0,97,0.01,,,-99.99,,2013-02-21 13:32:00,
2013-02-21 06:41:00,14.0,13.0,-100.00,NNW,333,4.0,6.0,97,0.03,,,-99.99,,2013-02-21 13:41:00,
2013-02-21 06:51:00,14.0,13.0,-100.00,NW,326,5.0,6.0,97,0.03,,,-99.99,,2013-02-21 13:51:00,
2013-02-21 07:02:00,14.0,13.0,-100.00,NW,322,4.0,6.0,97,0.03,,,-99.99,,2013-02-21 14:02:00,
2013-02-21 07:11:00,14.0,13.0,-100.00,NW,318,5.0,6.0,97,0.00,,,-99.99,,2013-02-21 14:11:00,
2013-02-21 07:21:00,14.0,13.0,-100.00,NW,315,4.0,6.0,97,0.00,,,-99.99,,2013-02-21 14:21:00,
2013-02-21 07:32:00,14.0,13.0,-100.00,NW,322,6.0,6.0,97,0.00,,,-99.99,,2013-02-21 14:32:00,
2013-02-21 07:41:00,14.0,13.0,-100.00,NW,318,4.0,6.0,97,0.00,,,-99.99,,2013-02-21 14:41:00,
2013-02-21 07:52:00,14.0,13.0,-100.00,NW,318,5.0,7.0,97,0.00,,,-99.99,,2013-02-21 14:52:00,
2013-02-21 08:01:00,14.0,13.0,-100.00,NW,326,5.0,7.0,97,0.00,,,-99.99,,2013-02-21 15:01:00,
2013-02-21 08:12:00,14.0,13.0,-100.00,NW,326,6.0,7.0,97,0.00,,,-99.99,,2013-02-21 15:12:00,
2013-02-21 08:21:00,14.0,14.0,-100.00,NNW,329,5.0,6.0,97,0.01,,,-99.99,,2013-02-21 15:21:00,
2013-02-21 08:32:00,14.0,14.0,-100.00,NW,318,5.0,6.0,97,0.04,,,-99.99,,2013-02-21 15:32:00,
2013-02-21 08:42:00,14.0,14.0,-100.00,NW,316,5.0,6.0,97,0.04,,,-99.99,,2013-02-21 15:42:00,
2013-02-21 08:51:00,14.0,14.0,-100.00,NW,309,4.0,6.0,98,0.01,,,-99.99,,2013-02-21 15:51:00,
2013-02-21 09:01:00,15.0,14.0,-100.00,NW,318,5.0,7.0,97,0.03,,,-99.99,,2013-02-21 16:01:00,
2013-02-21 09:12:00,14.0,14.0,-100.00,NW,326,6.0,7.0,98,0.07,,,-99.99,,2013-02-21 16:12:00,
2013-02-21 09:21:00,15.0,14.0,-100.00,NW,325,7.0,8.0,98,0.07,,,-99.99,,2013-02-21 16:21:00,
2013-02-21 09:32:00,15.0,15.0,-100.00,NNW,328,7.0,7.0,98,0.07,,,-99.99,,2013-02-21 16:32:00,
2013-02-21 09:42:00,15.0,15.0,-100.00,NNW,328,6.0,7.0,98,0.06,,,-99.99,,2013-02-21 16:42:00,
2013-02-21 09:52:00,15.0,15.0,-100.00,NW,323,6.0,7.0,98,0.04,,,-99.99,,2013-02-21 16:52:00,
2013-02-21 10:01:00,16.0,15.0,-100.00,NW,319,6.0,9.0,98,0.00,,,-99.99,,2013-02-21 17:01:00,
2013-02-21 10:11:00,15.0,15.0,-100.00,NW,313,7.0,9.0,98,0.00,,,-99.99,,2013-02-21 17:11:00,
2013-02-21 10:21:00,15.0,15.0,-100.00,NW,313,7.0,8.0,97,0.00,,,-99.99,,2013-02-21 17:21:00,
2013-02-21 10:32:00,15.0,15.0,-100.00,NW,320,7.0,8.0,98,0.00,,,-99.99,,2013-02-21 17:32:00,
2013-02-21 10:42:00,15.0,14.0,-100.00,NW,318,7.0,9.0,97,0.03,,,-99.99,,2013-02-21 17:42:00,
2013-02-21 10:52:00,15.0,14.0,-100.00,NW,313,7.0,9.0,98,0.01,,,-99.99,,2013-02-21 17:52:00,
2013-02-21 11:02:00,15.0,15.0,-100.00,NW,316,7.0,7.0,98,0.01,,,-99.99,,2013-02-21 18:02:00,
2013-02-21 11:11:00,15.0,15.0,-100.00,NW,316,6.0,7.0,98,0.00,,,-99.99,,2013-02-21 18:11:00,
2013-02-21 11:22:00,15.0,15.0,-100.00,NW,319,6.0,7.0,98,0.00,,,-99.99,,2013-02-21 18:22:00,
2013-02-21 11:31:00,16.0,16.0,-100.00,NW,319,6.0,7.0,98,0.04,,,-99.99,,2013-02-21 18:31:00,
2013-02-21 11:42:00,17.0,16.0,-100.00,NW,323,6.0,7.0,99,0.03,,,-99.99,,2013-02-21 18:42:00,
2013-02-21 11:51:00,17.0,17.0,-100.00,NW,320,5.0,6.0,99,0.01,,,-99.99,,2013-02-21 18:51:00,
2013-02-21 12:01:00,17.0,17.0,-100.00,NW,318,4.0,6.0,99,0.01,,,-99.99,,2013-02-21 19:01:00,
2013-02-21 12:12:00,17.0,16.0,-100.00,NW,312,5.0,6.0,98,0.00,,,-99.99,,2013-02-21 19:12:00,
2013-02-21 12:21:00,16.0,16.0,-100.00,NW,315,6.0,6.0,98,0.03,,,-99.99,,2013-02-21 19:21:00,
2013-02-21 12:31:00,15.0,15.0,-100.00,WNW,302,6.0,7.0,97,0.00,,,-99.99,,2013-02-21 19:31:00,
2013-02-21 12:41:00,16.0,15.0,-100.00,WNW,298,6.0,8.0,98,0.01,,,-99.99,,2013-02-21 19:41:00,
2013-02-21 12:51:00,16.0,15.0,-100.00,WNW,298,7.0,9.0,97,0.00,,,-99.99,,2013-02-21 19:51:00,
2013-02-21 13:01:00,16.0,15.0,-100.00,WNW,289,6.0,9.0,97,0.00,,,-99.99,,2013-02-21 20:01:00,
2013-02-21 13:11:00,16.0,15.0,-100.00,WNW,287,6.0,8.0,97,0.00,,,-99.99,,2013-02-21 20:11:00,
2013-02-21 13:21:00,16.0,15.0,-100.00,WNW,289,6.0,8.0,97,0.00,,,-99.99,,2013-02-21 20:21:00,
2013-02-21 13:32:00,16.0,15.0,-100.00,WNW,295,7.0,10.0,96,0.00,,,-99.99,,2013-02-21 20:32:00,
2013-02-21 13:41:00,15.0,14.0,-100.00,WNW,288,7.0,9.0,96,0.00,,,-99.99,,2013-02-21 20:41:00,
2013-02-21 13:52:00,15.0,14.0,-100.00,WNW,282,8.0,10.0,96,0.00,,,-99.99,,2013-02-21 20:52:00,
2013-02-21 14:02:00,15.0,15.0,-100.00,WNW,288,8.0,10.0,97,0.00,,,-99.99,,2013-02-21 21:02:00,
2013-02-21 14:11:00,15.0,15.0,-100.00,WNW,287,8.0,10.0,97,0.00,,,-99.99,,2013-02-21 21:11:00,
2013-02-21 14:21:00,15.0,14.0,-100.00,WNW,285,9.0,11.0,96,0.00,,,-99.99,,2013-02-21 21:21:00,
2013-02-21 14:31:00,15.0,14.0,-100.00,WNW,287,9.0,11.0,95,0.00,,,-99.99,,2013-02-21 21:31:00,
2013-02-21 14:42:00,15.0,14.0,-100.00,WNW,287,10.0,12.0,95,0.00,,,-99.99,,2013-02-21 21:42:00,
2013-02-21 14:51:00,15.0,13.0,-100.00,WNW,291,10.0,12.0,94,0.00,,,-99.99,,2013-02-21 21:51:00,
2013-02-21 15:01:00,15.0,14.0,-100.00,WNW,288,11.0,13.0,96,0.00,,,-99.99,,2013-02-21 22:01:00,
2013-02-21 15:11:00,15.0,14.0,-100.00,WNW,289,12.0,15.0,96,0.00,,,-99.99,,2013-02-21 22:11:00,
2013-02-21 15:21:00,15.0,14.0,-100.00,WNW,288,12.0,15.0,96,0.00,,,-99.99,,2013-02-21 22:21:00,
2013-02-21 15:31:00,14.0,13.0,-100.00,WNW,285,14.0,17.0,95,0.00,,,-99.99,,2013-02-21 22:31:00,
2013-02-21 15:41:00,15.0,13.0,-100.00,WNW,284,14.0,17.0,93,0.00,,,-99.99,,2013-02-21 22:41:00,
2013-02-21 15:52:00,15.0,13.0,-100.00,West,281,14.0,18.0,93,0.00,,,-99.99,,2013-02-21 22:52:00,
2013-02-21 16:01:00,15.0,13.0,-100.00,WNW,282,15.0,17.0,93,0.00,,,-99.99,,2013-02-21 23:01:00,
2013-02-21 16:11:00,15.0,13.0,-100.00,West,280,14.0,17.0,93,0.00,,,-99.99,,2013-02-21 23:11:00,
2013-02-21 16:21:00,15.0,13.0,-100.00,West,278,14.0,17.0,92,0.00,,,-99.99,,2013-02-21 23:21:00,
2013-02-21 16:32:00,15.0,13.0,-100.00,West,280,13.0,16.0,92,0.00,,,-99.99,,2013-02-21 23:32:00,
2013-02-21 16:41:00,16.0,13.0,-100.00,West,274,13.0,16.0,90,0.00,,,-99.99,,2013-02-21 23:41:00,
2013-02-21 16:52:00,16.0,13.0,-100.00,West,265,12.0,15.0,91,0.00,,,-99.99,,2013-02-21 23:52:00,
2013-02-21 17:01:00,16.0,13.0,-100.00,West,264,12.0,15.0,91,0.00,,,-99.99,,2013-02-22 00:01:00,
2013-02-21 17:11:00,16.0,13.0,-100.00,WSW,254,11.0,14.0,90,0.01,,,-99.99,,2013-02-22 00:11:00,
2013-02-21 17:21:00,16.0,13.0,-100.00,West,264,12.0,15.0,91,0.00,,,-99.99,,2013-02-22 00:21:00,
2013-02-21 17:32:00,16.0,13.0,-100.00,West,263,12.0,16.0,91,0.00,,,-99.99,,2013-02-22 00:32:00,
2013-02-21 17:41:00,15.0,13.0,-100.00,WSW,254,10.0,12.0,91,0.01,,,-99.99,,2013-02-22 00:41:00,
2013-02-21 17:51:00,16.0,14.0,-100.00,WSW,251,9.0,11.0,92,0.00,,,-99.99,,2013-02-22 00:51:00,
2013-02-21 18:01:00,16.0,13.0,-100.00,West,260,10.0,13.0,91,0.00,,,-99.99,,2013-02-22 01:01:00,
2013-02-21 18:11:00,15.0,13.0,-100.00,WSW,243,11.0,14.0,89,0.00,,,-99.99,,2013-02-22 01:11:00,
2013-02-21 18:21:00,16.0,13.0,-100.00,WSW,240,11.0,15.0,88,0.00,,,-99.99,,2013-02-22 01:21:00,
2013-02-21 18:32:00,15.0,13.0,-100.00,WSW,240,11.0,14.0,88,0.00,,,-99.99,,2013-02-22 01:32:00,
2013-02-21 18:42:00,15.0,13.0,-100.00,WSW,246,10.0,14.0,89,0.00,,,-99.99,,2013-02-22 01:42:00,
2013-02-21 18:51:00,15.0,12.0,-100.00,WSW,240,9.0,12.0,88,0.00,,,-99.99,,2013-02-22 01:51:00,
2013-02-21 19:02:00,15.0,12.0,-100.00,SW,234,10.0,14.0,87,0.00,,,-99.99,,2013-02-22 02:02:00,
2013-02-21 19:11:00,14.0,11.0,-100.00,SW,226,10.0,13.0,86,0.00,,,-99.99,,2013-02-22 02:11:00,
2013-02-21 19:21:00,14.0,10.0,-100.00,SW,229,11.0,14.0,86,0.00,,,-99.99,,2013-02-22 02:21:00,
2013-02-21 19:31:00,14.0,10.0,-100.00,SW,227,11.0,14.0,85,0.00,,,-99.99,,2013-02-22 02:31:00,
2013-02-21 19:42:00,15.0,10.0,-100.00,SW,223,12.0,16.0,83,0.00,,,-99.99,,2013-02-22 02:42:00,
2013-02-21 19:52:00,14.0,10.0,-100.00,SW,217,14.0,17.0,83,0.00,,,-99.99,,2013-02-22 02:52:00,
2013-02-21 20:01:00,14.0,10.0,-100.00,SSW,213,14.0,18.0,83,0.00,,,-99.99,,2013-02-22 03:01:00,
2013-02-21 20:11:00,14.0,10.0,-100.00,SW,217,14.0,18.0,82,0.00,,,-99.99,,2013-02-22 03:11:00,
2013-02-21 20:21:00,15.0,10.0,-100.00,SSW,209,16.0,20.0,81,0.00,,,-99.99,,2013-02-22 03:21:00,
2013-02-21 20:32:00,15.0,9.0,-100.00,SSW,208,17.0,21.0,80,0.00,,,-99.99,,2013-02-22 03:32:00,
2013-02-21 20:41:00,15.0,9.0,-100.00,SSW,206,18.0,22.0,80,0.00,,,-99.99,,2013-02-22 03:41:00,
2013-02-21 20:51:00,15.0,10.0,-100.00,SSW,210,18.0,22.0,79,0.00,,,-99.99,,2013-02-22 03:51:00,
2013-02-21 21:01:00,15.0,10.0,-100.00,SSW,213,18.0,26.0,79,0.00,,,-99.99,,2013-02-22 04:01:00,
2013-02-21 21:11:00,15.0,10.0,-100.00,SW,216,17.0,21.0,80,0.00,,,-99.99,,2013-02-22 04:11:00,
2013-02-21 21:21:00,15.0,10.0,-100.00,SW,217,19.0,22.0,79,0.00,,,-99.99,,2013-02-22 04:21:00,
2013-02-21 21:32:00,15.0,10.0,-100.00,SW,219,18.0,21.0,79,0.00,,,-99.99,,2013-02-22 04:32:00,
2013-02-21 21:42:00,16.0,10.0,-100.00,SW,219,17.0,22.0,78,0.00,,,-99.99,,2013-02-22 04:42:00,
2013-02-21 21:51:00,15.0,10.0,-100.00,SW,215,19.0,23.0,78,0.00,,,-99.99,,2013-02-22 04:51:00,
2013-02-21 22:01:00,16.0,10.0,-100.00,SSW,210,19.0,24.0,77,0.00,,,-99.99,,2013-02-22 05:01:00,
2013-02-21 22:12:00,16.0,10.0,-100.00,SW,215,17.0,23.0,76,0.00,,,-99.99,,2013-02-22 05:12:00,
2013-02-21 22:22:00,16.0,10.0,-100.00,SW,215,18.0,21.0,76,0.00,,,-99.99,,2013-02-22 05:22:00,
2013-02-21 22:32:00,16.0,10.0,-100.00,SW,216,18.0,21.0,77,0.00,,,-99.99,,2013-02-22 05:32:00,
2013-02-21 22:41:00,16.0,10.0,-100.00,SSW,213,18.0,21.0,78,0.00,,,-99.99,,2013-02-22 05:41:00,
2013-02-21 22:52:00,16.0,11.0,-100.00,SSW,213,18.0,24.0,78,0.00,,,-99.99,,2013-02-22 05:52:00,
2013-02-21 23:01:00,17.0,11.0,-100.00,SSW,212,17.0,21.0,79,0.00,,,-99.99,,2013-02-22 06:01:00,
2013-02-21 23:11:00,17.0,11.0,-100.00,SSW,213,16.0,19.0,79,0.00,,,-99.99,,2013-02-22 06:11:00,
2013-02-21 23:21:00,17.0,12.0,-100.00,SSW,213,15.0,18.0,81,0.00,,,-99.99,,2013-02-22 06:21:00,
2013-02-21 23:31:00,17.0,12.0,-100.00,SW,219,14.0,20.0,81,0.00,,,-99.99,,2013-02-22 06:31:00,
2013-02-21 23:42:00,17.0,12.0,-100.00,SW,219,16.0,21.0,81,0.00,,,-99.99,,2013-02-22 06:42:00,
2013-02-21 23:51:00,17.0,13.0,-100.00,SW,216,19.0,22.0,81,0.00,,,-99.99,,2013-02-22 06:51:00,